Regional Weather Roundup
Issued by NWS

Home | Current Version | Previous Version | Graphics & Text | Print | Product List | Glossary On
Versions: 1 2 3 4 5 6 7 8 9 10 11 12 13 14 15 16 17 18 19 20 21 22 23 24 25 26 27 28 29 30 31 32 33 34 35 36 37 38 39 40 41 42 43 44 45 46 47 48 49 50
000
ASUS43 KMPX 200401
RWRMN
WEATHER ROUNDUP FOR MINNESOTA
NATIONAL WEATHER SERVICE TWIN CITIES/CHANHASSEN MN
1100 PM CDT SAT AUG 19 2017


NOTE: "FAIR" INDICATES FEW OR NO CLOUDS BELOW 12,000 FEET WITH NO
SIGNIFICANT WEATHER AND/OR OBSTRUCTIONS TO VISIBILITY. N/A MEANS
CURRENT SKY AND/OR WEATHER CONDITIONS ARE NOT AVAILABLE.

MNZ060>063-068>070-200500-
   Twin Cities Metro

CITY           SKY/WX    TMP DP  RH WIND       PRES   REMARKS
TWIN CITIES    PTCLDY    70  63  78 S6        29.90R
ST PAUL        CLEAR     66  65  96 SE5       29.90R
CRYSTAL        CLEAR     69  61  75 S5        29.88R
BLAINE         CLEAR     66  64  94 S3        29.89S
LAKEVILLE      CLEAR     61  61 100 CALM      29.91R FOG
EDEN PRAIRIE   CLEAR     68  64  87 SE7       29.89R
SOUTH ST PAUL  CLEAR     68  64  86 CALM      29.90S
LAKE ELMO      FAIR      64  63  94 S3        29.91S
$$
MNZ001>005-007-008-013>017-022>024-027-028-200500-
   Northwest Minnesota

CITY           SKY/WX    TMP DP  RH WIND       PRES   REMARKS
BEMIDJI        CLEAR     66  57  72 S6        29.83R
HALLOCK        PTCLDY    72  63  73 S18       29.70S
ROSEAU         CLEAR     70  61  73 S10       29.74F
WARROAD        CLEAR     68  63  83 S6        29.76S
CROOKSTON      CLEAR     72  63  73 S16       29.75F
FOSSTON        CLEAR     64  59  82 S9        29.80F
DETROIT LAKES  PTCLDY    68  63  83 S9        29.84S
MOORHEAD       PTCLDY    70  63  78 S13       29.80R
PARK RAPIDS    CLEAR     65  60  84 S6        29.86R
MAHNOMEN       FAIR      66  61  85 S6        29.81S
$$
MNZ006-009>011-018-025>026-200500-
   North Central Minnesota

CITY           SKY/WX    TMP DP  RH WIND       PRES   REMARKS
BAUDETTE       CLEAR     65  60  84 S5        29.78S
FLAG ISLAND    CLEAR     73  63  68 S3        29.73S
INTL FALLS     CLEAR     66  58  75 VRB5      29.81S
WASKISH        CLEAR     64  59  82 S3        29.81S
BIG FORK       CLEAR     63  57  82 CALM      29.85S
LONGVILLE      PTCLDY    63  61  94 S3        29.86S
GRAND RAPIDS   CLOUDY    60  59  96 S3        29.88F
CRANE LAKE     CLEAR     55  55 100 CALM      29.85S
ORR            CLEAR     64  55  72 CALM      29.83S
COOK           CLEAR     63  59  88 CALM      29.87S
WALKER         FAIR      67  59  76 S3        29.85S
$$
MNZ012-019>021-037-200500-
   Northeast Minnesota

CITY           SKY/WX    TMP DP  RH WIND       PRES   REMARKS
DULUTH         PTCLDY    65  61  87 SW7       29.89S
ELY            CLEAR     64  57  77 S3        29.87S
HIBBING        CLEAR     57  56  96 CALM      29.88R
EVELETH        CLEAR     58  55  91 CALM      29.89S FOG
DULUTH HARBOR  CLEAR     68  64  88 SW8       29.88R
GRAND MARAIS     N/A     61  59  93 CALM      29.84R
$$
MNZ029>031-032-039>041-046>048-054>057-064-200500-
   West Central Minnesota

CITY           SKY/WX    TMP DP  RH WIND       PRES   REMARKS
FERGUS FALLS   PTCLDY    66  63  88 S12       29.83S
WHEATON        CLOUDY    64  61  88 SE8       29.85S
MORRIS         CLEAR     64  63  94 SE5       29.85R
ALEXANDRIA     CLEAR     67  63  87 S6        29.89R
ELBOW LAKE     FAIR      65  63  95 SE8       29.86S
WADENA         CLEAR     61  61 100 CALM      29.87R
GLENWOOD       CLEAR     64  63  94 CALM      29.88S
APPLETON       CLEAR     68  63  83 SE5       29.84S
BENSON         CLEAR     66  64  94 S6        29.87S
ORTONVILLE     CLEAR     66  63  88 MISG      29.84S
MADISON        CLEAR     66  66 100 SE6       29.83F
WILLMAR        FAIR      66  64  94 SE5       29.89R
$$
MNZ033>034-036-042>043-049>051-058-059-200500-
   Central Minnesota

CITY           SKY/WX    TMP DP  RH WIND       PRES   REMARKS
ST CLOUD       CLEAR     64  63  96 CALM      29.88R
SAUK CENTRE    FAIR      62  61  97 CALM      29.89R
PAYNESVILLE    CLEAR     68  64  88 S6        29.89R
AITKIN         CLEAR     57  55  94 CALM      29.87S
PINE RIVER     CLEAR     57  55  94 SE3       29.90S
BRAINERD       CLEAR     63  59  87 S3        29.87S
STAPLES        PTCLDY    64  59  82 S3        29.87R
LONG PRAIRIE   FAIR      61  59  94 CALM      29.89R
LITTLE FALLS   CLEAR     64  59  82 SE5       29.88S
LITCHFIELD     CLEAR     70  66  88 SE3       29.89S
BUFFALO        CLEAR     66  62  85 CALM      29.90R
MAPLE LAKE     CLEAR     67  65  93 CALM      29.90R
HUTCHINSON     PTCLDY    65  64  95 CALM      29.90S
$$
MNZ037-044-045-052-053-200500-
   East Central Minnesota

CITY           SKY/WX    TMP DP  RH WIND       PRES   REMARKS
PRINCETON      CLEAR     64  63  94 CALM      29.89S
MORA           CLEAR     59  55  88 CALM      29.91R
CAMBRIDGE      CLEAR     64  61  88 CALM      29.90R
RUSH CITY      MOCLDY    63  60  91 S3        29.90R
MOOSE LAKE     FOG       57  55  94 CALM      29.87S VSB 1
HINCKLEY       FAIR      59  59 100 CALM      29.90R
CLOQUET        CLEAR     64  57  77 CALM      29.90R
MCGREGOR       CLEAR     63  59  88 S3        29.88F
$$
MNZ071>073-080-081-089-090-097-098-200500-
   Southwest Minnesota

CITY           SKY/WX    TMP DP  RH WIND       PRES   REMARKS
MONTEVIDEO     CLEAR     66  64  94 S6        29.85F
GRANITE FALLS  CLEAR     68  65  90 SE7       29.87F
CANBY          CLEAR     66  63  90 CALM      29.85F
MARSHALL       CLEAR     68  64  87 S7        29.86F
REDWOOD FALLS  PTCLDY    68  64  87 S7        29.87R
OLIVIA         CLEAR     68  63  83 S6        29.88R
PIPESTONE      CLOUDY    70  64  83 S8        29.89R
WINDOM         CLOUDY    70  64  83 S9        29.91S
WORTHINGTON    CLOUDY    70  64  81 S7        29.91S
JACKSON        CLOUDY    68  63  83 CALM      29.93R
TRACY          CLEAR     71  66  83 S9        29.87S
SLAYTON        CLOUDY    64  60  87 SE7       29.90F
$$
MNZ065>067-074>077-082>085-091>093-200500-
   South Central Minnesota

CITY           SKY/WX    TMP DP  RH WIND       PRES   REMARKS
MANKATO        CLEAR     68  64  87 S7        29.92R
NEW ULM        PTCLDY    68  64  88 SE8       29.89R
ST JAMES       CLEAR     66  64  94 SE6       29.90F
FAIRMONT       PTCLDY    68  65  90 S6        29.91S
GLENCOE        CLEAR     67  66  96 SE3       29.89S
FARIBAULT      CLEAR     66  63  88 S3        29.92R
OWATONNA       CLEAR     66  63  88 S8        29.92S
WASECA         CLEAR     63  61  94 SE6       29.94R
ALBERT LEA     CLEAR     70  64  83 S6        29.94R
$$
MNZ078>079-086>088-094>096-200500-
   Southeast Minnesota

CITY           SKY/WX    TMP DP  RH WIND       PRES   REMARKS
ROCHESTER      CLEAR     63  61  93 S7        29.95S
RED WING       CLEAR     63  61  94 CALM      29.90S
DODGE CENTER   CLEAR     61  59  94 S6        29.94S
WINONA         CLEAR     63  63 100 CALM      29.94S
AUSTIN         CLEAR     66  61  82 SE5       29.94S
PRESTON        CLEAR     64  59  85 S3        29.96S
$$
ABBREVIATIONS USED IN REMARKS
   TC - TEMPERATURES IN CELSIUS
  WCI - WIND CHILL INDEX
   HX - HEAT INDEX
  VSB - VISIBILITY
$$




USA.gov is the U.S. government's official web portal to all federal, state and local government web resources and services.